Regional Weather Roundup
Issued by NWS Grand Forks, ND

Home | Current Version | Previous Version | Graphics & Text | Print | Product List | Glossary On
Versions: 1 2 3 4 5 6 7 8 9 10 11 12 13 14 15 16 17 18 19 20 21 22 23 24 25 26 27 28 29 30 31 32 33 34 35 36 37 38 39 40 41 42 43 44 45 46 47 48 49 50
000
ASUS43 KFGF 010410
RWRFGF
PRAIRIE TO PINES  WEATHER ROUNDUP
NATIONAL WEATHER SERVICE EASTERN NORTH DAKOTA/GRAND FORKS ND
1100 PM CDT TUE SEP 30 2014

 **SATELLITE DATA USED TO AUGMENT SKY COVER AT AUTOMATED STATIONS**
 *****  WEATHER ACROSS EASTERN NORTH DAKOTA  *****

CITY           SKY/WX    TMP DP  RH WIND       PRES   REMARKS
GRAND FORKS    CLOUDY    57  48  72 SE23G32   29.57F
GRAND FRKS AFB CLOUDY    56  51  83 SE17G26   29.57F
GRAND FRKS NWS   N/A     55 N/A N/A SE22        N/A
DEVILS LAKE    CLOUDY    57  48  72 SE23G33   29.45F
FARGO          LGT RAIN  61  51  70 SE29G38   29.60F
WAHPETON ARPT  CLOUDY    59  52  77 SE25G32   29.64F
$$

 ***** WEATHER ACROSS CENTRAL AND WESTERN NORTH DAKOTA  *****

CITY           SKY/WX    TMP DP  RH WIND       PRES   REMARKS
BISMARCK       CLOUDY    55  55 100 SW14      29.42R
MINOT          LGT RAIN  51  50  96 N7        29.42F
JAMESTOWN      CLOUDY    59  56  89 SE21G35   29.46F
MINOT AFB      LGT RAIN  51  51 100 NE6       29.43F
GARRISON         N/A     51  50  96 NW8       29.41F
WILLISTON      CLOUDY    51  49  92 CALM      29.50S
DICKINSON      CLOUDY    51  50  96 W12       29.49R FOG
HETTINGER      CLOUDY    52  50  93 W14       29.55R
$$

 *****  OTHER AIRPORT OBSERVATIONS IN OUR AREA  *****

CITY           SKY/WX    TMP DP  RH WIND       PRES   REMARKS
WALHALLA         N/A     55  50  82 SE16G22   29.56F
GRAFTON AIRPOR MOCLDY    55  48  76 SE20      29.58F
VALLEY CITY AR CLOUDY    57  57 100 SE20G28   29.52F
CANDO          MOCLDY    54  50  87 SE21G26   29.46F FOG
CAVALIER APRT  CLOUDY    55  46  71 SE10      29.57F
GWINNER          N/A     59  59 100 SE15      29.58S
SHEYENNE NWR     N/A     57  53  88 SE15      29.95S
ROLLA          CLOUDY    50  50 100 E15G22    29.50F
 ***** THE ABOVE OBSERVATIONS ARE NON NWS ARE NOT QUALITY
       CONTROLLED AND MAY MIS-REPORT RAIN FOR SNOW...
$$

  *****  WEATHER ACROSS NORTHERN MINNESOTA  *****

CITY           SKY/WX    TMP DP  RH WIND       PRES   REMARKS
FLAG ISLAND    MOCLDY    55  45  67 SE17      29.74F
WARROAD        CLOUDY    52  46  82 SE15G21   29.72F
ROSEAU         CLOUDY    55  46  71 SE16      29.70F
HALLOCK        CLOUDY    57  46  67 SE17G23   29.60F
THF RVR FALLS  CLOUDY    55  45  67 SE18      29.65F
BAUDETTE       MOCLDY    50  42  74 SE12G20   29.76F
WASKISH        CLOUDY    52  43  71 E16G25    29.77F
CROOKSTON      CLOUDY    57  48  72 SE25G31   29.62F
STEPHEN NDAWN    N/A     57  48  72 SE16        N/A
GREENBUSH NDAW   N/A     55  46  71 SE15        N/A
$$
  *****  WEATHER ACROSS CENTRAL AND WEST MINNESOTA  *****

CITY           SKY/WX    TMP DP  RH WIND       PRES   REMARKS
FOSSTON        CLOUDY    54  45  71 SE18G25   29.69F
BEMIDJI        CLOUDY    51  44  76 SE17G25   29.77S
PARK RAPIDS    CLOUDY    53  44  71 SE21      29.77F
ELBOW LAKE     MOCLDY    56  51  84 SE22G30   29.69F
WADENA         MOCLDY    50  45  81 SE17      29.76F
DETROIT LAKES  CLOUDY    54  46  76 SE17G30   29.71F
MOORHEAD       NOT AVBL
FERGUS FALLS   CLOUDY    57  48  72 SE21G28   29.69F
MORRIS MN      PTCLDY    57  54  88 SE18G24   29.71R
STAPLES        CLOUDY    52  45  76 SE9G17    29.79F
$$
  *****  WEATHER ELSEWHERE ACROSS MINNESOTA  *****

CITY           SKY/WX    TMP DP  RH WIND       PRES   REMARKS
DULUTH         CLOUDY    46  43  89 E14       29.93S
INTRNTL FALLS  PTCLDY    46  40  79 SE10      29.86S
ELY            MOCLDY    43  37  81 E5        29.93F
CLOQUET        CLOUDY    45  43  93 E8G22     29.92S
WHEATON        MOCLDY    57  54  88 SE20G26   29.68S
BRAINERD       CLOUDY    51  43  74 SE10      29.84S
HIBBING        CLOUDY    46  41  82 S9        29.91F
ALEXANDRIA     PTCLDY    52  47  83 SE14G22   29.76F
SAINT CLOUD    CLOUDY    55  45  68 SE10      29.84F
MINNEAPOLIS    CLOUDY    52  45  77 SE16G25   29.86S
$$

  *****  WEATHER ACROSS SOUTH DAKOTA  *****

CITY           SKY/WX    TMP DP  RH WIND       PRES   REMARKS
SIOUX FALLS    CLOUDY    63  59  87 S16G23    29.76S
BROOKINGS      NOT AVBL
WATERTOWN      PTCLDY    62  59  90 S22G33    29.68R
HURON          PTCLDY    63  51  65 S10       29.67R
SISSETON         N/A     60  58  92 S15       29.63S
ABERDEEN       MOCLDY    64  53  67 S13       29.59R
MITCHELL       CLOUDY    64  61  90 S10       29.71R
PIERRE         PTCLDY    55  48  77 S6        29.63R
MOBRIDGE       MOCLDY    60  52  74 W15       29.52R
RAPID CITY     MOCLDY    53  45  74 NW3       29.70R
$$

  *****  SOME WEATHER IN NEARBY STATES *****

CITY           SKY/WX    TMP DP  RH WIND       PRES   REMARKS
GLASGOW MT     CLOUDY    55  49  80 NW20G25   29.60R
GREAT FALLS MT CLOUDY    46  44  93 NW12      29.87R
CHEYENNE WY    CLOUDY    51  36  56 NW6       29.90S
SCOTTSBLUFF NE CLOUDY    61  43  51 W13       29.79R
OMAHA NE       LGT RAIN  66  63  90 NW6       29.82R
DES MOINES IA  CLOUDY    66  57  72 SE10      29.84F
DAVENPORT IA   NOT AVBL
CHICAGO IL     CLOUDY    55  47  74 E7        30.02S
EAU CLAIRE WI  CLOUDY    47  41  80 SE9       29.98R
LA CROSSE WI   CLOUDY    50  43  77 SE9       29.98F
$$

  *****  SOME NATIONAL WEATHER *****

CITY           SKY/WX    TMP DP  RH WIND       PRES   REMARKS
LA GUARDIA NY  LGT RAIN  63  58  83 N7        29.99S
RALEIGH NC     PTCLDY    61  59  93 CALM      29.94R
ATLANTA GA     PTCLDY    68  64  87 SW5       29.94S
NEW ORLEANS LA PTCLDY    77  72  84 SE6       29.88R
OKLAHOMA CITY  PTCLDY    76  64  66 SE15      29.76F
ALBUQUERQUE NM CLEAR     65  32  29 NW5       29.96R
SALT LAKE CITY MOCLDY    53  48  83 SE6       29.94S
LOS ANGELES CA CLEAR     68  62  81 SW7       29.77S
BOISE ID       CLOUDY    54  37  52 NW9       30.01R
SEATTLE WA     CLOUDY    61  49  64 E8        30.15R
$$

*** WEATHER ACROSS MANITOBA...SASKATCHEWAN AND ONTARIO ***
                ***ONTARIO***

CITY           SKY/WX    TMP DP  RH WIND       PRES   REMARKS
GERALDTON      CLEAR     37  34  87 SE3       30.06S
THUNDER BAY    PTCLDY    36  34  93 CALM      30.05F
SIOUX LOOKOUT  CLEAR     46  41  81 SE8       29.89F
TORONTO        CLOUDY    63  57  82 E8        30.02R
BIG TROUT LK   CLEAR     45  39  81 S16       29.88F
PICKLE LAKE    NOT AVBL
DRYDEN         CLEAR     48  43  81 SE14G21   29.86S
KENORA         PTCLDY    50  43  76 SE15G21   29.78F
$$
                *** MANITOBA***

CITY           SKY/WX    TMP DP  RH WIND       PRES   REMARKS
BRANDON        CLOUDY    50  48  93 E13       29.55F
DAUPHIN        CLOUDY    52  50  93 SE9       29.57F
ISLAND LAKE    PTCLDY    48  43  81 SE13      29.76F
PILOT MOUND    NOT AVBL
THE PAS        LGT RAIN  50  50 100 S13       29.59
THOMPSON       CLOUDY    52  50  93 S5        29.64F
WINNIPEG       LGT RAIN  52  48  87 SE14G21   29.64F
LYNN LAKE      FOG       48  48 100 SW6       29.57F VSB 3/4
CHURCHILL      LGT RAIN  45  41  87 SE16      29.76F
GILLAM         CLOUDY    48  43  81 SE10G17   29.74F
$$
                ***SASKATCHEWAN***

CITY           SKY/WX    TMP DP  RH WIND       PRES   REMARKS
ESTEVAN        DRIZZLE   48  48 100 E3        29.50F FOG
KINDERSLEY     CLOUDY    52  43  71 NW15G21   29.67S
LLOYDMINSTER   CLOUDY    52  45  76 NW16G24   29.68S
PRINCE ALBERT  MOCLDY    54  50  87 NW9       29.56S
REGINA         LGT RAIN  50  48  93 SE6       29.51F
YORKTON          N/A    N/A N/A N/A MISG        N/A
N. BATTLEFORD  CLOUDY    54  50  87 NW14      29.65S
LA RONGE       NOT AVBL
SASKATOON      CLOUDY    52  50  93 NW9       29.59S
SWIFT CURRENT  CLOUDY    52  48  87 NW21G26   29.61S
$$
NOTE: THESE ARE AUTOMATED STATIONS WITH LIMITED QUALITY CONTROL
      "FAIR" INDICATES FEW OR NO CLOUDS BELOW 12,000 FEET WITH NO
      SIGNIFICANT WEATHER AND/OR OBSTRUCTIONS TO VISIBILITY.
      SKY/WX - SKY CONDITION AND SIGNIFICANT WEATHER.
      TMP - AIR TEMPERATURE.    DP   - DEWPOINT TEMPERATURE.
      RH  - RELATIVE HUMIDITY.  PRES - PRESSURE.
      HX  - HEAT INDEX.         WCI  - WIND CHILL INDEX.
$


USA.gov is the U.S. government's official web portal to all federal, state and local government web resources and services.